7 * 24
多渠道服务支持
QIANFAN-115(NORAD编号68642)是上海垣信卫星科技有限公司(Spacesail)主导建设运营的**千帆星座(Qianfan/Spacesail Constellation,又称G60星链)**的低轨通信卫星,属于该星座第七批组网卫星之一,于2026年4月完成发射入轨。 千帆星座是全球规模仅次于SpaceX星链的低轨卫星互联网项目,规划总计超过15000颗卫星,依托近地轨道(约800-1060公里)提供低时延高速宽带互联服务,QIANFAN-115的成功入轨进一步推进了千帆星座的组网进程,助力其后续为全球用户包括航空领域提供卫星互联网接入服务。
中国
(CN)
| 数据来源 | 国际轨道数据 |
| 星历时间: | 2026-09-11T13:52:13+0800 9小时前 查看轨道信息 |
| 半长轴: | 7446.632km |
| 偏心率: | 0.0002196 |
| 轨道倾角: | 88.988° |
| 近地点辐角 | 95.309° |
| 升交点赤经 | 312.243° |
| 平近点角 | 264.831° |
| 近地点: | 1066.859km |
| 远地点: | 1070.131km |
| 周期: | 106.586分钟 |
| 每日圈数: | 13.510237 |